Year,Month,Day,Hour,Minute,Value (Times are PST for barometer in hPa)
2016,03,06,00,49,984.32
2016,03,06,00,50,984.22
2016,03,06,00,51,984.25
2016,03,06,00,52,984.20
2016,03,06,00,53,984.19
2016,03,06,00,54,984.12
2016,03,06,00,55,984.12
2016,03,06,00,56,984.08
2016,03,06,00,57,984.03
2016,03,06,00,58,984.02
2016,03,06,00,59,984.02
2016,03,06,01,00,983.96
2016,03,06,01,01,983.92
2016,03,06,01,02,983.95
2016,03,06,01,03,983.92
2016,03,06,01,04,983.88
2016,03,06,01,05,983.92
2016,03,06,01,06,983.92
2016,03,06,01,07,983.92
2016,03,06,01,08,983.95
2016,03,06,01,09,983.98
2016,03,06,01,10,984.02
2016,03,06,01,11,983.98
2016,03,06,01,12,984.02
2016,03,06,01,13,984.02
2016,03,06,01,14,984.02
2016,03,06,01,15,984.02
2016,03,06,01,16,984.08
2016,03,06,01,17,984.05
2016,03,06,01,18,984.08
2016,03,06,01,19,984.08
2016,03,06,01,20,984.05
2016,03,06,01,21,984.05
2016,03,06,01,22,983.96
2016,03,06,01,23,983.98
2016,03,06,01,24,983.95
2016,03,06,01,25,983.89
2016,03,06,01,26,983.81
2016,03,06,01,27,983.85
2016,03,06,01,28,983.78
2016,03,06,01,29,983.81
2016,03,06,01,30,983.75
2016,03,06,01,31,983.78
2016,03,06,01,32,983.81
2016,03,06,01,33,983.81
2016,03,06,01,34,983.76
2016,03,06,01,35,983.68
2016,03,06,01,36,983.71
2016,03,06,01,37,983.64
2016,03,06,01,38,983.64
2016,03,06,01,39,983.54
2016,03,06,01,40,983.58
2016,03,06,01,41,983.64
2016,03,06,01,42,983.64
2016,03,06,01,43,983.64
2016,03,06,01,44,983.74
2016,03,06,01,45,983.80
2016,03,06,01,46,983.85
2016,03,06,01,47,983.88
2016,03,06,01,48,983.88
2016,03,06,01,49,983.92
2016,03,06,01,50,983.98
2016,03,06,01,51,984.02
2016,03,06,01,52,984.02
2016,03,06,01,53,984.14
2016,03,06,01,54,984.19
2016,03,06,01,55,984.25
2016,03,06,01,56,984.25
2016,03,06,01,57,984.45
2016,03,06,01,58,984.46
2016,03,06,01,59,984.53
2016,03,06,02,00,984.56
2016,03,06,02,01,984.63
2016,03,06,02,02,984.68
2016,03,06,02,03,984.69
2016,03,06,02,04,984.73
2016,03,06,02,05,984.82
2016,03,06,02,06,984.83
2016,03,06,02,07,984.92
2016,03,06,02,08,984.93
2016,03,06,02,09,984.84
2016,03,06,02,10,984.90
2016,03,06,02,11,984.83
2016,03,06,02,12,984.83
2016,03,06,02,13,984.76
2016,03,06,02,14,984.60
2016,03,06,02,15,984.37
2016,03,06,02,16,984.05
2016,03,06,02,17,983.86
2016,03,06,02,18,983.85
2016,03,06,02,19,983.97
2016,03,06,02,20,984.11
2016,03,06,02,21,984.18
2016,03,06,02,22,984.08
2016,03,06,02,23,984.21
2016,03,06,02,24,984.32
2016,03,06,02,25,984.45
2016,03,06,02,26,984.53
2016,03,06,02,27,984.66
2016,03,06,02,28,984.72
2016,03,06,02,29,984.79
2016,03,06,02,30,984.74
2016,03,06,02,31,984.73
2016,03,06,02,32,984.73
2016,03,06,02,33,984.69
2016,03,06,02,34,984.76
2016,03,06,02,35,984.83
2016,03,06,02,36,984.90
2016,03,06,02,37,984.97
2016,03,06,02,38,985.03
2016,03,06,02,39,985.03
2016,03,06,02,40,985.00
2016,03,06,02,41,985.00
2016,03,06,02,42,985.07
2016,03,06,02,43,985.07
2016,03,06,02,44,985.10
2016,03,06,02,45,985.16
2016,03,06,02,46,985.20
2016,03,06,02,47,985.29
2016,03,06,02,48,985.34
2016,03,06,02,49,985.37
2016,03,06,02,50,985.37
2016,03,06,02,51,985.43
2016,03,06,02,52,985.57
2016,03,06,02,53,985.61
2016,03,06,02,54,985.71
2016,03,06,02,55,985.78
2016,03,06,02,56,985.81
2016,03,06,02,57,985.81
2016,03,06,02,58,985.78
2016,03,06,02,59,985.74
2016,03,06,03,00,985.71
2016,03,06,03,01,985.71
2016,03,06,03,02,985.68
2016,03,06,03,03,985.61
2016,03,06,03,04,985.54
2016,03,06,03,05,985.57
2016,03,06,03,06,985.61
2016,03,06,03,07,985.57
2016,03,06,03,08,985.51
2016,03,06,03,09,985.38
2016,03,06,03,10,985.21
2016,03,06,03,11,985.14
2016,03,06,03,12,985.13
2016,03,06,03,13,985.07
2016,03,06,03,14,985.10
2016,03,06,03,15,985.17
2016,03,06,03,16,985.23
2016,03,06,03,17,985.34
2016,03,06,03,18,985.41
2016,03,06,03,19,985.41
2016,03,06,03,20,985.47
2016,03,06,03,21,985.53
2016,03,06,03,22,985.60
2016,03,06,03,23,985.57
2016,03,06,03,24,985.57
2016,03,06,03,25,985.61
2016,03,06,03,26,985.64
2016,03,06,03,27,985.64
2016,03,06,03,28,985.64
2016,03,06,03,29,985.61
2016,03,06,03,30,985.57
2016,03,06,03,31,985.57
2016,03,06,03,32,985.54
2016,03,06,03,33,985.51
2016,03,06,03,34,985.57
2016,03,06,03,35,985.54
2016,03,06,03,36,985.54
2016,03,06,03,37,985.57
2016,03,06,03,38,985.57
2016,03,06,03,39,985.70
2016,03,06,03,40,985.71
2016,03,06,03,41,985.74
2016,03,06,03,42,985.84
2016,03,06,03,43,985.85
2016,03,06,03,44,985.78
2016,03,06,03,45,985.78
2016,03,06,03,46,985.81
2016,03,06,03,47,985.88
2016,03,06,03,48,985.91
2016,03,06,03,49,985.95
2016,03,06,03,50,986.04
2016,03,06,03,51,986.08
2016,03,06,03,52,986.17
2016,03,06,03,53,986.22
2016,03,06,03,54,986.29
2016,03,06,03,55,986.25
2016,03,06,03,56,986.22
2016,03,06,03,57,986.25
2016,03,06,03,58,986.29
2016,03,06,03,59,986.23
2016,03,06,04,00,986.25
2016,03,06,04,01,986.29
2016,03,06,04,02,986.34
2016,03,06,04,03,986.39
2016,03,06,04,04,986.46
2016,03,06,04,05,986.52
2016,03,06,04,06,986.46
2016,03,06,04,07,986.55
2016,03,06,04,08,986.62
2016,03,06,04,09,986.59
2016,03,06,04,10,986.62
2016,03,06,04,11,986.68
2016,03,06,04,12,986.76
2016,03,06,04,13,986.79
2016,03,06,04,14,986.92
2016,03,06,04,15,987.02
2016,03,06,04,16,987.03
2016,03,06,04,17,987.06
2016,03,06,04,18,987.10
2016,03,06,04,19,987.22
2016,03,06,04,20,987.17
2016,03,06,04,21,987.13
2016,03,06,04,22,987.22
2016,03,06,04,23,987.27
2016,03,06,04,24,987.30
2016,03,06,04,25,987.30
2016,03,06,04,26,987.27
2016,03,06,04,27,987.27
2016,03,06,04,28,987.30
2016,03,06,04,29,987.30
2016,03,06,04,30,987.34
2016,03,06,04,31,987.34
2016,03,06,04,32,987.37
2016,03,06,04,33,987.46
2016,03,06,04,34,987.56
2016,03,06,04,35,987.63
2016,03,06,04,36,987.77
2016,03,06,04,37,987.74
2016,03,06,04,38,987.80
2016,03,06,04,39,987.84
2016,03,06,04,40,987.88
2016,03,06,04,41,987.88
2016,03,06,04,42,987.91
2016,03,06,04,43,987.84
2016,03,06,04,44,987.81
2016,03,06,04,45,987.78
2016,03,06,04,46,987.81
2016,03,06,04,47,987.88
2016,03,06,04,48,987.94
2016,03,06,04,49,987.98
2016,03,06,04,50,988.05
2016,03,06,04,51,988.10
2016,03,06,04,52,988.21
2016,03,06,04,53,988.25
2016,03,06,04,54,988.34
2016,03,06,04,55,988.41
2016,03,06,04,56,988.48
2016,03,06,04,57,988.54
2016,03,06,04,58,988.59
2016,03,06,04,59,988.69
2016,03,06,05,00,988.78
2016,03,06,05,01,988.83
2016,03,06,05,02,988.92
2016,03,06,05,03,988.96
2016,03,06,05,04,989.00
2016,03,06,05,05,989.00
2016,03,06,05,06,989.10
2016,03,06,05,07,989.16
2016,03,06,05,08,989.23
2016,03,06,05,09,989.23
2016,03,06,05,10,989.29
2016,03,06,05,11,989.36
2016,03,06,05,12,989.33
2016,03,06,05,13,989.23
2016,03,06,05,14,989.07
2016,03,06,05,15,989.03
2016,03,06,05,16,988.90
2016,03,06,05,17,988.86
2016,03,06,05,18,988.86
2016,03,06,05,19,988.89
2016,03,06,05,20,988.93
2016,03,06,05,21,988.96
2016,03,06,05,22,988.87
2016,03,06,05,23,988.83
2016,03,06,05,24,988.76
2016,03,06,05,25,988.76
2016,03,06,05,26,988.76
2016,03,06,05,27,988.76
2016,03,06,05,28,988.88
2016,03,06,05,29,989.02
2016,03,06,05,30,989.12
2016,03,06,05,31,989.19
2016,03,06,05,32,989.14
2016,03,06,05,33,989.16
2016,03,06,05,34,989.13
2016,03,06,05,35,989.10
2016,03,06,05,36,989.13
2016,03,06,05,37,989.16
2016,03,06,05,38,989.26
2016,03,06,05,39,989.33
2016,03,06,05,40,989.43
2016,03,06,05,41,989.49
2016,03,06,05,42,989.59
2016,03,06,05,43,989.64
2016,03,06,05,44,989.70
2016,03,06,05,45,989.74
2016,03,06,05,46,989.77
2016,03,06,05,47,989.77
2016,03,06,05,48,989.83
2016,03,06,05,49,989.88
2016,03,06,05,50,989.97
2016,03,06,05,51,990.01
2016,03,06,05,52,990.01
2016,03,06,05,53,990.04
2016,03,06,05,54,990.04
2016,03,06,05,55,990.08
2016,03,06,05,56,990.11
2016,03,06,05,57,990.11
2016,03,06,05,58,990.17
2016,03,06,05,59,990.18
2016,03,06,06,00,990.24
2016,03,06,06,01,990.28
2016,03,06,06,02,990.32
2016,03,06,06,03,990.32
2016,03,06,06,04,990.28
2016,03,06,06,05,990.37
2016,03,06,06,06,990.42
2016,03,06,06,07,990.48
2016,03,06,06,08,990.52
2016,03,06,06,09,990.61
2016,03,06,06,10,990.65
2016,03,06,06,11,990.71
2016,03,06,06,12,990.76
2016,03,06,06,13,990.76
2016,03,06,06,14,990.76
2016,03,06,06,15,990.79
2016,03,06,06,16,990.76
2016,03,06,06,17,990.72
2016,03,06,06,18,990.66
2016,03,06,06,19,990.65
2016,03,06,06,20,990.56
2016,03,06,06,21,990.49
2016,03,06,06,22,990.52
2016,03,06,06,23,990.49
2016,03,06,06,24,990.52
2016,03,06,06,25,990.52
2016,03,06,06,26,990.49
2016,03,06,06,27,990.52
2016,03,06,06,28,990.52
2016,03,06,06,29,990.49
2016,03,06,06,30,990.52
2016,03,06,06,31,990.58
2016,03,06,06,32,990.59
2016,03,06,06,33,990.59
2016,03,06,06,34,990.65
2016,03,06,06,35,990.69
2016,03,06,06,36,990.69
2016,03,06,06,37,990.69
2016,03,06,06,38,990.72
2016,03,06,06,39,990.76
2016,03,06,06,40,990.76
2016,03,06,06,41,990.79
2016,03,06,06,42,990.85
2016,03,06,06,43,990.89
2016,03,06,06,44,990.98
2016,03,06,06,45,990.96
2016,03,06,06,46,990.96
2016,03,06,06,47,991.03
2016,03,06,06,48,990.99
2016,03,06,06,49,991.03
2016,03,06,06,50,991.09
2016,03,06,06,51,991.13
2016,03,06,06,52,991.16
2016,03,06,06,53,991.25
2016,03,06,06,54,991.23
2016,03,06,06,55,991.23
2016,03,06,06,56,991.23
2016,03,06,06,57,991.26
2016,03,06,06,58,991.26
2016,03,06,06,59,991.30
2016,03,06,07,00,991.24
2016,03,06,07,01,991.26
2016,03,06,07,02,991.23
2016,03,06,07,03,991.26
2016,03,06,07,04,991.23
2016,03,06,07,05,991.23
2016,03,06,07,06,991.29
2016,03,06,07,07,991.30
2016,03,06,07,08,991.30
2016,03,06,07,09,991.30
2016,03,06,07,10,991.33
2016,03,06,07,11,991.37
2016,03,06,07,12,991.40
2016,03,06,07,13,991.43
2016,03,06,07,14,991.47
2016,03,06,07,15,991.50
2016,03,06,07,16,991.53
2016,03,06,07,17,991.53
2016,03,06,07,18,991.57
2016,03,06,07,19,991.57
2016,03,06,07,20,991.57
2016,03,06,07,21,991.53
2016,03,06,07,22,991.50
2016,03,06,07,23,991.47
2016,03,06,07,24,991.50
2016,03,06,07,25,991.50
2016,03,06,07,26,991.53
2016,03,06,07,27,991.57
2016,03,06,07,28,991.60
2016,03,06,07,29,991.57
2016,03,06,07,30,991.57
2016,03,06,07,31,991.53
2016,03,06,07,32,991.57
2016,03,06,07,33,991.51
2016,03,06,07,34,991.53
2016,03,06,07,35,991.53
2016,03,06,07,36,991.53
2016,03,06,07,37,991.57
2016,03,06,07,38,991.60
2016,03,06,07,39,991.64
2016,03,06,07,40,991.64
2016,03,06,07,41,991.64
2016,03,06,07,42,991.67
2016,03,06,07,43,991.64
2016,03,06,07,44,991.64
2016,03,06,07,45,991.64
2016,03,06,07,46,991.64
2016,03,06,07,47,991.67
2016,03,06,07,48,991.70
2016,03,06,07,49,991.70
2016,03,06,07,50,991.74
2016,03,06,07,51,991.74
2016,03,06,07,52,991.74
2016,03,06,07,53,991.77
2016,03,06,07,54,991.86
2016,03,06,07,55,991.82
2016,03,06,07,56,991.86
2016,03,06,07,57,991.84
2016,03,06,07,58,991.84
2016,03,06,07,59,991.84
2016,03,06,08,00,991.87
2016,03,06,08,01,991.91
2016,03,06,08,02,991.91
2016,03,06,08,03,991.97
2016,03,06,08,04,992.01
2016,03,06,08,05,992.08
2016,03,06,08,06,992.14
2016,03,06,08,07,992.11
2016,03,06,08,08,992.24
2016,03,06,08,09,992.30
2016,03,06,08,10,992.37
2016,03,06,08,11,992.42
2016,03,06,08,12,992.45
2016,03,06,08,13,992.45
2016,03,06,08,14,992.48
2016,03,06,08,15,992.48
2016,03,06,08,16,992.52
2016,03,06,08,17,992.58
2016,03,06,08,18,992.62
2016,03,06,08,19,992.65
2016,03,06,08,20,992.62
2016,03,06,08,21,992.65
2016,03,06,08,22,992.65
2016,03,06,08,23,992.69
2016,03,06,08,24,992.65
2016,03,06,08,25,992.71
2016,03,06,08,26,992.69
2016,03,06,08,27,992.65
2016,03,06,08,28,992.78
2016,03,06,08,29,992.82
2016,03,06,08,30,992.86
2016,03,06,08,31,992.86
2016,03,06,08,32,992.91
2016,03,06,08,33,992.92
2016,03,06,08,34,992.96
2016,03,06,08,35,992.99
2016,03,06,08,36,992.92
2016,03,06,08,37,992.92
2016,03,06,08,38,992.92
2016,03,06,08,39,992.92
2016,03,06,08,40,992.98
2016,03,06,08,41,992.96
2016,03,06,08,42,992.99
2016,03,06,08,43,993.03
2016,03,06,08,44,993.03
2016,03,06,08,45,993.06
2016,03,06,08,46,993.06
2016,03,06,08,47,993.09
2016,03,06,08,48,993.15
2016,03,06,08,49,993.13
2016,03,06,08,50,993.18
2016,03,06,08,51,993.23
2016,03,06,08,52,993.26
2016,03,06,08,53,993.26
2016,03,06,08,54,993.30
2016,03,06,08,55,993.39
2016,03,06,08,56,993.40
2016,03,06,08,57,993.40
2016,03,06,08,58,993.40
2016,03,06,08,59,993.46
2016,03,06,09,00,993.50
2016,03,06,09,01,993.47
2016,03,06,09,02,993.50
2016,03,06,09,03,993.50
2016,03,06,09,04,993.50
2016,03,06,09,05,993.57
2016,03,06,09,06,993.57
2016,03,06,09,07,993.57
2016,03,06,09,08,993.53
2016,03,06,09,09,993.59
2016,03,06,09,10,993.60
2016,03,06,09,11,993.60
2016,03,06,09,12,993.57
2016,03,06,09,13,993.62
2016,03,06,09,14,993.67
2016,03,06,09,15,993.67
2016,03,06,09,16,993.70
2016,03,06,09,17,993.70
2016,03,06,09,18,993.74
2016,03,06,09,19,993.74
2016,03,06,09,20,993.74
2016,03,06,09,21,993.74
2016,03,06,09,22,993.70
2016,03,06,09,23,993.74
2016,03,06,09,24,993.74
2016,03,06,09,25,993.68
2016,03,06,09,26,993.70
2016,03,06,09,27,993.70
2016,03,06,09,28,993.67
2016,03,06,09,29,993.67
2016,03,06,09,30,993.67
2016,03,06,09,31,993.67
2016,03,06,09,32,993.67
2016,03,06,09,33,993.73
2016,03,06,09,34,993.70
2016,03,06,09,35,993.70
2016,03,06,09,36,993.76
2016,03,06,09,37,993.77
2016,03,06,09,38,993.77
2016,03,06,09,39,993.74
2016,03,06,09,40,993.74
2016,03,06,09,41,993.74
2016,03,06,09,42,993.79
2016,03,06,09,43,993.77
2016,03,06,09,44,993.80
2016,03,06,09,45,993.84
2016,03,06,09,46,993.84
2016,03,06,09,47,993.90
2016,03,06,09,48,993.91
2016,03,06,09,49,993.87
2016,03,06,09,50,993.91
2016,03,06,09,51,993.91
2016,03,06,09,52,993.91
2016,03,06,09,53,993.91
2016,03,06,09,54,993.91
2016,03,06,09,55,993.94
2016,03,06,09,56,993.97
2016,03,06,09,57,994.03
2016,03,06,09,58,994.01
2016,03,06,09,59,994.07
2016,03,06,10,00,994.07
2016,03,06,10,01,994.04
2016,03,06,10,02,994.04
2016,03,06,10,03,994.04
2016,03,06,10,04,994.07
2016,03,06,10,05,994.04
2016,03,06,10,06,994.10
2016,03,06,10,07,994.11
2016,03,06,10,08,994.08
2016,03,06,10,09,994.07
2016,03,06,10,10,994.04
2016,03,06,10,11,994.10
2016,03,06,10,12,994.11
2016,03,06,10,13,994.02
2016,03,06,10,14,994.01
2016,03,06,10,15,994.04
2016,03,06,10,16,994.10
2016,03,06,10,17,994.05
2016,03,06,10,18,994.07
2016,03,06,10,19,994.13
2016,03,06,10,20,994.08
2016,03,06,10,21,994.13
2016,03,06,10,22,994.14
2016,03,06,10,23,994.14
2016,03,06,10,24,994.14
2016,03,06,10,25,994.17
2016,03,06,10,26,994.14
2016,03,06,10,27,994.18
2016,03,06,10,28,994.23
2016,03,06,10,29,994.21
2016,03,06,10,30,994.24
2016,03,06,10,31,994.24
2016,03,06,10,32,994.24
2016,03,06,10,33,994.28
2016,03,06,10,34,994.24
2016,03,06,10,35,994.21
2016,03,06,10,36,994.24
2016,03,06,10,37,994.21
2016,03,06,10,38,994.24
2016,03,06,10,39,994.24
2016,03,06,10,40,994.21
2016,03,06,10,41,994.24
2016,03,06,10,42,994.19
2016,03,06,10,43,994.21
2016,03,06,10,44,994.28
2016,03,06,10,45,994.28
2016,03,06,10,46,994.31
2016,03,06,10,47,994.37
2016,03,06,10,48,994.38
2016,03,06,10,49,994.38
2016,03,06,10,50,994.41
2016,03,06,10,51,994.45
2016,03,06,10,52,994.41
2016,03,06,10,53,994.41
2016,03,06,10,54,994.47
2016,03,06,10,55,994.45
2016,03,06,10,56,994.48
2016,03,06,10,57,994.48
2016,03,06,10,58,994.52
2016,03,06,10,59,994.61
2016,03,06,11,00,994.56
2016,03,06,11,01,994.61
2016,03,06,11,02,994.65
2016,03,06,11,03,994.59
2016,03,06,11,04,994.71
2016,03,06,11,05,994.72
2016,03,06,11,06,994.68
2016,03,06,11,07,994.65
2016,03,06,11,08,994.72
2016,03,06,11,09,994.72
2016,03,06,11,10,994.72
2016,03,06,11,11,994.72
2016,03,06,11,12,994.72
2016,03,06,11,13,994.75
2016,03,06,11,14,994.72
2016,03,06,11,15,994.72
2016,03,06,11,16,994.81
2016,03,06,11,17,994.82
2016,03,06,11,18,994.76
2016,03,06,11,19,994.79
2016,03,06,11,20,994.79
2016,03,06,11,21,994.79
2016,03,06,11,22,994.82
2016,03,06,11,23,994.79
2016,03,06,11,24,994.82
2016,03,06,11,25,994.82
2016,03,06,11,26,994.85
2016,03,06,11,27,994.82
2016,03,06,11,28,994.82
2016,03,06,11,29,994.79
2016,03,06,11,30,994.75
2016,03,06,11,31,994.81
2016,03,06,11,32,994.82
2016,03,06,11,33,994.79
2016,03,06,11,34,994.84
2016,03,06,11,35,994.85
2016,03,06,11,36,994.95
2016,03,06,11,37,994.92
2016,03,06,11,38,994.96
2016,03,06,11,39,994.99
2016,03,06,11,40,995.05
2016,03,06,11,41,995.06
2016,03,06,11,42,995.06
2016,03,06,11,43,995.11
2016,03,06,11,44,995.16
2016,03,06,11,45,995.19
2016,03,06,11,46,995.23
2016,03,06,11,47,995.32
2016,03,06,11,48,995.33
2016,03,06,11,49,995.40
2016,03,06,11,50,995.40
2016,03,06,11,51,995.40
2016,03,06,11,52,995.40
2016,03,06,11,53,995.45
2016,03,06,11,54,995.46
2016,03,06,11,55,995.43
2016,03,06,11,56,995.46
2016,03,06,11,57,995.49
2016,03,06,11,58,995.46
2016,03,06,11,59,995.46
2016,03,06,12,00,995.46
2016,03,06,12,01,995.43
2016,03,06,12,02,995.43
2016,03,06,12,03,995.46
2016,03,06,12,04,995.49
2016,03,06,12,05,995.50
2016,03,06,12,06,995.59
2016,03,06,12,07,995.56
2016,03,06,12,08,995.56
2016,03,06,12,09,995.60
2016,03,06,12,10,995.63
2016,03,06,12,11,995.63
2016,03,06,12,12,995.69
2016,03,06,12,13,995.67
2016,03,06,12,14,995.67
2016,03,06,12,15,995.72
2016,03,06,12,16,995.73
2016,03,06,12,17,995.77
2016,03,06,12,18,995.77
2016,03,06,12,19,995.84
2016,03,06,12,20,995.87
2016,03,06,12,21,995.96
2016,03,06,12,22,995.94
2016,03,06,12,23,995.94
2016,03,06,12,24,996.00
2016,03,06,12,25,995.97
2016,03,06,12,26,996.03
2016,03,06,12,27,996.04
2016,03,06,12,28,996.07
2016,03,06,12,29,996.04
2016,03,06,12,30,996.04
2016,03,06,12,31,996.04
2016,03,06,12,32,996.04
2016,03,06,12,33,996.04
2016,03,06,12,34,996.04
2016,03,06,12,35,995.98
2016,03,06,12,36,996.03
2016,03,06,12,37,996.01
2016,03,06,12,38,996.04
2016,03,06,12,39,996.10
2016,03,06,12,40,996.07
2016,03,06,12,41,996.07
2016,03,06,12,42,996.11
2016,03,06,12,43,996.05
2016,03,06,12,44,995.98
2016,03,06,12,45,996.03
2016,03,06,12,46,996.04
2016,03,06,12,47,996.04
2016,03,06,12,48,996.07
2016,03,06,12,49,996.13
2016,03,06,12,50,996.14
2016,03,06,12,51,996.11
2016,03,06,12,52,996.11
2016,03,06,12,53,996.16
2016,03,06,12,54,996.23
2016,03,06,12,55,996.24
2016,03,06,12,56,996.24
2016,03,06,12,57,996.28
2016,03,06,12,58,996.28
2016,03,06,12,59,996.31
2016,03,06,13,00,996.31
2016,03,06,13,01,996.40
2016,03,06,13,02,996.29
2016,03,06,13,03,996.31
2016,03,06,13,04,996.40
2016,03,06,13,05,996.38
2016,03,06,13,06,996.41
2016,03,06,13,07,996.38
2016,03,06,13,08,996.38
2016,03,06,13,09,996.38
2016,03,06,13,10,996.38
2016,03,06,13,11,996.38
2016,03,06,13,12,996.41
2016,03,06,13,13,996.32
2016,03,06,13,14,996.37
2016,03,06,13,15,996.38
2016,03,06,13,16,996.38
2016,03,06,13,17,996.32
2016,03,06,13,18,996.31
2016,03,06,13,19,996.31
2016,03,06,13,20,996.31
2016,03,06,13,21,996.28
2016,03,06,13,22,996.31
2016,03,06,13,23,996.28
2016,03,06,13,24,996.37
2016,03,06,13,25,996.29
2016,03,06,13,26,996.37
2016,03,06,13,27,996.32
2016,03,06,13,28,996.37
2016,03,06,13,29,996.32
2016,03,06,13,30,996.31
2016,03,06,13,31,996.37
2016,03,06,13,32,996.41
2016,03,06,13,33,996.41
2016,03,06,13,34,996.45
2016,03,06,13,35,996.41
2016,03,06,13,36,996.45
2016,03,06,13,37,996.48
2016,03,06,13,38,996.45
2016,03,06,13,39,996.48
2016,03,06,13,40,996.48
2016,03,06,13,41,996.59
2016,03,06,13,42,996.58
2016,03,06,13,43,996.61
2016,03,06,13,44,996.65
2016,03,06,13,45,996.68
2016,03,06,13,46,996.65
2016,03,06,13,47,996.59
2016,03,06,13,48,996.61
2016,03,06,13,49,996.58
2016,03,06,13,50,996.70
2016,03,06,13,51,996.68
2016,03,06,13,52,996.62
2016,03,06,13,53,996.65
2016,03,06,13,54,996.65
2016,03,06,13,55,996.59
2016,03,06,13,56,996.58
2016,03,06,13,57,996.61
2016,03,06,13,58,996.65
2016,03,06,13,59,996.65
2016,03,06,14,00,996.59
2016,03,06,14,01,996.71
2016,03,06,14,02,996.72
2016,03,06,14,03,996.72
2016,03,06,14,04,996.72
2016,03,06,14,05,996.78
2016,03,06,14,06,996.78
2016,03,06,14,07,996.72
2016,03,06,14,08,996.75
2016,03,06,14,09,996.75
2016,03,06,14,10,996.75
2016,03,06,14,11,996.72
2016,03,06,14,12,996.77
2016,03,06,14,13,996.75
2016,03,06,14,14,996.81
2016,03,06,14,15,996.82
2016,03,06,14,16,996.85
2016,03,06,14,17,996.79
2016,03,06,14,18,996.82
2016,03,06,14,19,996.76
2016,03,06,14,20,996.78
2016,03,06,14,21,996.84
2016,03,06,14,22,996.82
2016,03,06,14,23,996.88
2016,03,06,14,24,996.89
2016,03,06,14,25,996.92
2016,03,06,14,26,996.89
2016,03,06,14,27,996.92
2016,03,06,14,28,996.92
2016,03,06,14,29,996.92
2016,03,06,14,30,996.92
2016,03,06,14,31,996.95
2016,03,06,14,32,996.92
2016,03,06,14,33,996.89
2016,03,06,14,34,996.92
2016,03,06,14,35,996.92
2016,03,06,14,36,996.92
2016,03,06,14,37,996.98
2016,03,06,14,38,996.96
2016,03,06,14,39,996.99
2016,03,06,14,40,996.99
2016,03,06,14,41,997.04
2016,03,06,14,42,997.09
2016,03,06,14,43,997.12
2016,03,06,14,44,997.16
2016,03,06,14,45,997.16
2016,03,06,14,46,997.10
2016,03,06,14,47,997.12
2016,03,06,14,48,997.09
2016,03,06,14,49,997.12
2016,03,06,14,50,997.06
2016,03,06,14,51,997.11
2016,03,06,14,52,997.09
2016,03,06,14,53,997.09
2016,03,06,14,54,997.09
2016,03,06,14,55,997.12
2016,03,06,14,56,997.09
2016,03,06,14,57,997.12
2016,03,06,14,58,997.21
2016,03,06,14,59,997.16
2016,03,06,15,00,997.16
2016,03,06,15,01,997.21
2016,03,06,15,02,997.26
2016,03,06,15,03,997.26
2016,03,06,15,04,997.26
2016,03,06,15,05,997.26
2016,03,06,15,06,997.29
2016,03,06,15,07,997.35
2016,03,06,15,08,997.39
2016,03,06,15,09,997.36
2016,03,06,15,10,997.36
2016,03,06,15,11,997.33
2016,03,06,15,12,997.33
2016,03,06,15,13,997.36
2016,03,06,15,14,997.45
2016,03,06,15,15,997.37
2016,03,06,15,16,997.42
2016,03,06,15,17,997.46
2016,03,06,15,18,997.46
2016,03,06,15,19,997.46
2016,03,06,15,20,997.46
2016,03,06,15,21,997.46
2016,03,06,15,22,997.49
2016,03,06,15,23,997.50
2016,03,06,15,24,997.47
2016,03,06,15,25,997.46
2016,03,06,15,26,997.52
2016,03,06,15,27,997.50
2016,03,06,15,28,997.50
2016,03,06,15,29,997.50
2016,03,06,15,30,997.53
2016,03,06,15,31,997.50
2016,03,06,15,32,997.53
2016,03,06,15,33,997.56
2016,03,06,15,34,997.51
2016,03,06,15,35,997.55
2016,03,06,15,36,997.53
2016,03,06,15,37,997.56
2016,03,06,15,38,997.53
2016,03,06,15,39,997.56
2016,03,06,15,40,997.60
2016,03,06,15,41,997.54
2016,03,06,15,42,997.59
2016,03,06,15,43,997.51
2016,03,06,15,44,997.50
2016,03,06,15,45,997.46
2016,03,06,15,46,997.43
2016,03,06,15,47,997.43
2016,03,06,15,48,997.40
2016,03,06,15,49,997.39
2016,03,06,15,50,997.39
2016,03,06,15,51,997.39
2016,03,06,15,52,997.36
2016,03,06,15,53,997.33
2016,03,06,15,54,997.33
2016,03,06,15,55,997.39
2016,03,06,15,56,997.39
2016,03,06,15,57,997.36
2016,03,06,15,58,997.36
2016,03,06,15,59,997.39
2016,03,06,16,00,997.36
2016,03,06,16,01,997.39
2016,03,06,16,02,997.43
2016,03,06,16,03,997.43
2016,03,06,16,04,997.49
2016,03,06,16,05,997.44
2016,03,06,16,06,997.46
2016,03,06,16,07,997.46
2016,03,06,16,08,997.43
2016,03,06,16,09,997.46
2016,03,06,16,10,997.46
2016,03,06,16,11,997.46
2016,03,06,16,12,997.46
2016,03,06,16,13,997.43
2016,03,06,16,14,997.43
2016,03,06,16,15,997.43
2016,03,06,16,16,997.37
2016,03,06,16,17,997.42
2016,03,06,16,18,997.43
2016,03,06,16,19,997.49
2016,03,06,16,20,997.46
2016,03,06,16,21,997.46
2016,03,06,16,22,997.50
2016,03,06,16,23,997.50
2016,03,06,16,24,997.53
2016,03,06,16,25,997.50
2016,03,06,16,26,997.53
2016,03,06,16,27,997.59
2016,03,06,16,28,997.57
2016,03,06,16,29,997.62
2016,03,06,16,30,997.63
2016,03,06,16,31,997.69
2016,03,06,16,32,997.70
2016,03,06,16,33,997.73
2016,03,06,16,34,997.77
2016,03,06,16,35,997.73
2016,03,06,16,36,997.79
2016,03,06,16,37,997.80
2016,03,06,16,38,997.77
2016,03,06,16,39,997.80
2016,03,06,16,40,997.74
2016,03,06,16,41,997.73
2016,03,06,16,42,997.73
2016,03,06,16,43,997.77
2016,03,06,16,44,997.82
2016,03,06,16,45,997.83
2016,03,06,16,46,997.83
2016,03,06,16,47,997.80
2016,03,06,16,48,997.83
2016,03,06,16,49,997.89
2016,03,06,16,50,997.87
2016,03,06,16,51,997.93
2016,03,06,16,52,997.94
2016,03,06,16,53,997.97
2016,03,06,16,54,998.00
2016,03,06,16,55,998.00
2016,03,06,16,56,997.97
2016,03,06,16,57,998.00
2016,03,06,16,58,997.97
2016,03,06,16,59,998.00
2016,03,06,17,00,998.00
2016,03,06,17,01,997.95
2016,03,06,17,02,997.99
2016,03,06,17,03,997.95
2016,03,06,17,04,997.90
2016,03,06,17,05,997.96
2016,03,06,17,06,997.91
2016,03,06,17,07,997.93
2016,03,06,17,08,997.90
2016,03,06,17,09,997.90
2016,03,06,17,10,997.96
2016,03,06,17,11,997.94
2016,03,06,17,12,997.94
2016,03,06,17,13,997.94
2016,03,06,17,14,997.97
2016,03,06,17,15,997.97
2016,03,06,17,16,997.97
2016,03,06,17,17,997.94
2016,03,06,17,18,998.03
2016,03,06,17,19,998.07
2016,03,06,17,20,998.04
2016,03,06,17,21,998.09
2016,03,06,17,22,998.10
2016,03,06,17,23,998.10
2016,03,06,17,24,998.14
2016,03,06,17,25,998.14